[[{"header":{"parameterUnit":"m.s-1","parameterCategory":1,"la1":30.2991,"la2":30.254,"lo1":-89.0895,"lo2":-89.0444,"dy":0.0017,"dx":0.0017,"nx":28,"ny":28,"refTime":"2024-10-02T21:00:00:Z","depth":0,"parameterNumber":2,"parameterNumberName":"U-component_of_WINDS"},"data":[0,0,0,0,0,0,0,0,0,0,0,0,0,0,0,0,0,0,0,0,0,0,0,0,0,0,0,0,0,0,0,0,0,0,0,0,0,0,0,0,0,0,0,0,0,0,0,0,0,0,0,0,0,0,0,0,0,0,-5.0512,-5.0511,0,-5.0451,-5.0451,-5.045,-5.0327,-5.0325,-5.0322,-5.032,-5.0259,-5.0259,-5.026,0,0,0,0,0,0,0,0,0,0,0,0,0,-5.0524,-5.0525,-5.0512,-5.0511,-5.0511,-5.0452,-5.0451,-5.045,-5.0328,-5.0325,-5.0322,-5.0319,-5.0258,-5.0259,-5.026,0,0,0,0,0,0,0,0,0,0,0,0,0,-5.0497,-5.0525,-5.0512,-5.0442,-5.0436,-5.0452,-5.0451,-5.045,-5.0328,-5.0325,-5.0321,-5.0318,-5.0258,-5.0259,-5.026,-5.0339,0,0,-5.0263,-5.0263,0,0,0,0,0,0,0,0,-5.0499,-5.0497,-5.0453,-5.0447,-5.044,-5.0393,-5.0432,-5.0413,-5.0329,-5.0369,-5.032,-5.0316,-5.0306,-5.0303,-5.03,-5.0336,-5.0334,-5.0263,-5.0264,-5.0264,-5.0264,0,0,0,0,0,0,0,-5.0501,-5.0498,-5.0488,-5.0453,-5.0445,-5.0415,-5.0407,-5.0428,-5.0359,-5.0365,-5.0356,-5.0351,-5.0302,-5.0299,-5.0297,-5.0333,-5.0263,-5.0264,-5.0264,-5.0265,-5.0434,-5.0437,0,0,0,0,0,0,-5.0512,-5.0501,-5.049,-5.0486,-5.0461,-5.0418,-5.0409,-5.0412,-5.0358,-5.0347,-5.0354,-5.0345,-5.0299,-5.0296,-5.0295,-5.0385,-5.0264,-5.0265,-5.0265,-5.043,-5.0434,-5.0439,0,0,0,0,0,0,-5.0513,-5.0513,-5.0492,-5.0491,-5.0486,-5.0421,-5.0426,-5.0413,-5.041,-5.035,-5.0337,-5.0364,-5.0296,-5.0293,-5.033,-5.0381,-5.0265,-5.0266,-5.0425,-5.0431,-5.0437,-5.0567,0,0,0,0,0,0,-5.0514,-5.0514,-5.0542,-5.0493,-5.0487,-5.0528,-5.0429,-5.0414,-5.0412,-5.04,-5.0356,-5.0345,-5.0293,-5.0329,-5.0331,-5.0381,-5.0267,-5.042,-5.0428,-5.0435,-5.0557,-5.0576,-5.0592,0,0,0,0,0,-5.0515,-5.0581,-5.0544,-5.0544,-5.0521,-5.0531,-5.0528,-5.0467,-5.0416,-5.0445,-5.0407,-5.0346,-5.0376,-5.0334,-5.0334,-5.0386,-5.0417,-5.0426,-5.0434,-5.055,-5.0573,-5.0592,0,0,0,0,0,0,-5.0638,-5.0573,-5.0532,-5.0584,-5.0564,-5.051,-5.0545,-5.0493,-5.0487,-5.0476,-5.0401,-5.0392,-5.0439,-5.0415,-5.037,-5.0461,-5.0387,-5.0396,-5.0474,-5.0495,-5.0513,-5.0517,-5.0268,0,0,0,0,0,-5.0671,-5.0684,-5.0627,-5.0678,-5.0671,-5.061,-5.0612,-5.0567,-5.0543,-5.0534,-5.0499,-5.0479,-5.0483,-5.0488,-5.0489,-5.0554,-5.0543,-5.059,-5.0607,-5.0622,-5.0631,-5.0666,-5.0686,-5.0468,-5.0468,-5.0467,0,0,-5.074,-5.0706,-5.0719,-5.0702,-5.0682,-5.0698,-5.0603,-5.0624,-5.0635,-5.0537,-5.0569,-5.0543,-5.0516,-5.0568,-5.0588,-5.055,-5.0689,-5.0633,-5.0645,-5.0646,-5.0677,-5.0697,-5.0716,-5.0474,-5.0473,-5.0472,0,0,-5.0873,-5.0849,-5.089,-5.0871,-5.0842,-5.0801,-5.0812,-5.0766,-5.0745,-5.0776,-5.0704,-5.0717,-5.0726,-5.071,-5.0704,-5.0835,-5.0779,-5.0837,-5.0928,-5.0963,-5.098,-5.0995,-5.1043,-5.1061,-5.0846,-5.0846,-5.0847,0,-5.0963,-5.0983,-5.0917,-5.0943,-5.0939,-5.0852,-5.0893,-5.0879,-5.0851,-5.0851,-5.0808,-5.0819,-5.0795,-5.0842,-5.0875,-5.0872,-5.0882,-5.0841,-5.0983,-5.0997,-5.101,-5.1055,-5.1073,-5.0854,-5.0853,-5.0852,-5.0851,0,-5.1095,-5.1111,-5.1147,-5.1124,-5.1123,-5.1157,-5.1098,-5.1105,-5.1062,-5.1026,-5.1061,-5.1028,-5.1022,-5.103,-5.0987,-5.1073,-5.105,-5.0996,-5.092,-5.1039,-5.108,-5.1097,-5.0864,-5.0862,-5.0859,-5.0858,0,0,-5.1303,-5.1244,-5.1258,-5.1248,-5.121,-5.1221,-5.1252,-5.1246,-5.1255,-5.124,-5.1264,-5.1276,-5.1227,-5.1219,-5.1174,-5.1204,-5.1312,-5.1147,-5.1145,-5.118,-5.1407,-5.1448,-5.1469,-5.1275,-5.1278,-5.1281,-5.1409,0,-5.1428,-5.1476,-5.1419,-5.148,-5.1495,-5.1414,-5.1441,-5.1422,-5.139,-5.1399,-5.1364,-5.1374,-5.1307,-5.1303,-5.1329,-5.1294,-5.1357,-5.1283,-5.1299,-5.13,-5.1309,-5.149,-5.1533,-5.1656,-5.1425,-5.1427,-5.1429,0,-5.158,-5.1573,-5.1636,-5.1596,-5.16,-5.1625,-5.1617,-5.1626,-5.1603,-5.1578,-5.1571,-5.1517,-5.1546,-5.1473,-5.1512,-5.1463,-5.1467,-5.145,-5.1454,-5.1453,-5.1372,-5.1495,-5.1693,-5.1712,-5.1454,-5.1452,-5.145,0,-5.1727,-5.1733,-5.1772,-5.1765,-5.1719,-5.1739,-5.1721,-5.1694,-5.1696,-5.1688,-5.1689,-5.1685,-5.1684,-5.1683,-5.163,-5.1581,-5.1677,-5.1599,-5.1658,-5.166,-5.1682,-5.1681,-5.1884,-5.1683,-5.1683,-5.1683,-5.1682,0,-5.1873,-5.1915,-5.1837,-5.1861,-5.1907,-5.1842,-5.1889,-5.1862,-5.184,-5.1858,-5.1788,-5.1807,-5.1736,-5.1748,-5.1707,-5.1747,-5.1746,-5.1728,-5.1716,-5.1734,-5.1737,-5.1735,-5.1726,-5.1687,-5.1686,-5.1686,-5.1685,0,-5.2044,-5.1994,-5.2031,-5.1985,-5.1975,-5.2011,-5.1972,-5.1993,-5.1958,-5.1982,-5.1984,-5.193,-5.194,-5.1888,-5.1888,-5.1861,-5.1922,-5.1896,-5.193,-5.1922,-5.1985,-5.1981,-5.2195,-5.222,-5.2003,-5.2005,-5.2007,0,-5.2141,-5.2171,-5.213,-5.2137,-5.2123,-5.2136,-5.2137,-5.2075,-5.2079,-5.2057,-5.2081,-5.2086,-5.2087,-5.2108,-5.2069,-5.207,-5.2044,-5.2119,-5.2043,-5.2061,-5.2046,-5.2045,-5.2049,-5.2135,-5.2137,-5.2139,-5.2141,0,-5.2318,-5.2292,-5.2296,-5.2293,-5.2297,-5.2291,-5.2281,-5.2291,-5.2224,-5.2233,-5.2243,-5.2244,-5.2246,-5.2253,-5.2246,-5.2228,-5.2175,-5.2166,-5.218,-5.2198,-5.2217,-5.2209,-5.1974,-5.2161,-5.2159,-5.2157,-5.2156,-5.2155,-5.2455,-5.248,-5.2455,-5.2463,-5.2449,-5.2441,-5.2459,-5.2427,-5.2435,-5.2432,-5.2395,-5.2413,-5.2391,-5.2377,-5.2365,-5.2379,-5.2344,-5.2364,-5.2369,-5.2375,-5.2387,-5.2215,-5.2378,-5.2377,-5.2377,-5.2376,-5.2376,0,-5.263,-5.2611,-5.2619,-5.2607,-5.2614,-5.2563,-5.2549,-5.2559,-5.2576,-5.256,-5.2563,-5.2576,-5.2583,-5.2545,-5.2547,-5.2566,-5.2541,-5.2568,-5.2567,-5.2564,-5.2418,-5.2406,-5.2588,-5.2588,-5.2588,-5.2588,-5.2588,-5.2588,-5.2722,-5.2761,-5.2733,-5.2765,-5.2745,-5.2762,-5.2759,-5.2753,-5.274,-5.2758,-5.2764,-5.2739,-5.2715,-5.2715,-5.272,-5.2709,-5.2713,-5.2749,-5.273,-5.2594,-5.2574,-5.2554,-5.2543,-5.2751,-5.2751,-5.2875,-5.2876,-5.2877]},{"header":{"parameterUnit":"m.s-1","parameterCategory":1,"la1":30.2991,"la2":30.254,"lo1":-89.0895,"lo2":-89.0444,"dy":0.0017,"dx":0.0017,"nx":28,"ny":28,"refTime":"2024-10-02T21:00:00:Z","depth":0,"parameterNumber":3,"parameterNumberName":"V-component_of_WINDS"},"data":[0,0,0,0,0,0,0,0,0,0,0,0,0,0,0,0,0,0,0,0,0,0,0,0,0,0,0,0,0,0,0,0,0,0,0,0,0,0,0,0,0,0,0,0,0,0,0,0,0,0,0,0,0,0,0,0,0,0,-1.4806,-1.4807,0,-1.4962,-1.4963,-1.4965,-1.4986,-1.4985,-1.4983,-1.4982,-1.5145,-1.515,-1.5156,0,0,0,0,0,0,0,0,0,0,0,0,0,-1.4528,-1.4533,-1.4805,-1.4807,-1.4809,-1.4961,-1.4963,-1.4966,-1.4987,-1.4985,-1.4983,-1.4981,-1.5143,-1.515,-1.5156,0,0,0,0,0,0,0,0,0,0,0,0,0,-1.4662,-1.4534,-1.4805,-1.4838,-1.4843,-1.4961,-1.4964,-1.4966,-1.4987,-1.4985,-1.4983,-1.4981,-1.5141,-1.5149,-1.5157,-1.5255,0,0,-1.5184,-1.5187,0,0,0,0,0,0,0,0,-1.4655,-1.4673,-1.4831,-1.4836,-1.4841,-1.4952,-1.4925,-1.5063,-1.4988,-1.4932,-1.4982,-1.4979,-1.5083,-1.5096,-1.513,-1.5262,-1.5269,-1.5184,-1.5189,-1.5193,-1.5196,0,0,0,0,0,0,0,-1.4645,-1.4666,-1.4867,-1.4834,-1.484,-1.4846,-1.4862,-1.4951,-1.5018,-1.4937,-1.4939,-1.4957,-1.5085,-1.5122,-1.5134,-1.5272,-1.5184,-1.5192,-1.5197,-1.52,-1.5491,-1.5494,0,0,0,0,0,0,-1.463,-1.4658,-1.4862,-1.4872,-1.4741,-1.4852,-1.4871,-1.4919,-1.5017,-1.503,-1.4959,-1.4957,-1.5108,-1.5124,-1.514,-1.5261,-1.5193,-1.5201,-1.5206,-1.5489,-1.5492,-1.5495,0,0,0,0,0,0,-1.4624,-1.4648,-1.4856,-1.4766,-1.4793,-1.486,-1.4913,-1.4923,-1.496,-1.5033,-1.5046,-1.4984,-1.5107,-1.5128,-1.5226,-1.5267,-1.5205,-1.5213,-1.5486,-1.549,-1.5493,-1.5503,0,0,0,0,0,0,-1.4616,-1.4645,-1.4683,-1.4766,-1.4797,-1.4939,-1.4915,-1.4928,-1.4974,-1.4974,-1.506,-1.5073,-1.5107,-1.5213,-1.5234,-1.5277,-1.5219,-1.5482,-1.5487,-1.5492,-1.5499,-1.5507,-1.5513,0,0,0,0,0,-1.4606,-1.468,-1.4685,-1.4709,-1.4845,-1.4941,-1.4959,-1.4996,-1.4977,-1.5016,-1.5063,-1.507,-1.5258,-1.5223,-1.5247,-1.5293,-1.548,-1.5486,-1.5492,-1.5496,-1.5505,-1.5513,0,0,0,0,0,0,-1.4601,-1.4692,-1.4698,-1.4801,-1.4863,-1.4945,-1.4994,-1.5005,-1.5074,-1.5071,-1.5115,-1.5134,-1.523,-1.5271,-1.523,-1.5392,-1.5367,-1.5378,-1.5363,-1.5372,-1.5379,-1.5368,-1.5227,0,0,0,0,0,-1.4611,-1.4681,-1.4757,-1.4841,-1.4871,-1.4927,-1.497,-1.4993,-1.506,-1.5087,-1.5141,-1.5206,-1.528,-1.5328,-1.54,-1.5504,-1.5524,-1.5548,-1.5555,-1.556,-1.557,-1.5629,-1.5641,-1.5514,-1.5514,-1.5514,0,0,-1.4635,-1.4693,-1.4735,-1.4841,-1.4892,-1.4964,-1.4949,-1.5026,-1.508,-1.5099,-1.5195,-1.5236,-1.5312,-1.5413,-1.5461,-1.5451,-1.5609,-1.5568,-1.5571,-1.5578,-1.5636,-1.5648,-1.5659,-1.5518,-1.5517,-1.5516,0,0,-1.4715,-1.4765,-1.4841,-1.4892,-1.4968,-1.5005,-1.5023,-1.5102,-1.5131,-1.5227,-1.5242,-1.5307,-1.5433,-1.5486,-1.553,-1.5628,-1.5637,-1.565,-1.5687,-1.5744,-1.5754,-1.5763,-1.5799,-1.5811,-1.5659,-1.5659,-1.5659,0,-1.4735,-1.4844,-1.4879,-1.4955,-1.5002,-1.502,-1.5098,-1.5145,-1.5242,-1.5274,-1.526,-1.5418,-1.547,-1.5585,-1.5608,-1.5642,-1.5665,-1.5642,-1.5749,-1.5759,-1.5768,-1.5803,-1.5816,-1.566,-1.566,-1.566,-1.566,0,-1.4865,-1.494,-1.4992,-1.5084,-1.5136,-1.5212,-1.526,-1.5308,-1.5326,-1.5364,-1.5462,-1.5524,-1.5609,-1.5637,-1.5656,-1.5755,-1.5746,-1.574,-1.5716,-1.578,-1.5814,-1.5828,-1.5662,-1.5661,-1.5661,-1.5661,0,0,-1.495,-1.5058,-1.5077,-1.5119,-1.5203,-1.5262,-1.5339,-1.5421,-1.5462,-1.5527,-1.5594,-1.5699,-1.5694,-1.5743,-1.5767,-1.5817,-1.5892,-1.5805,-1.5808,-1.5821,-1.6006,-1.6011,-1.6026,-1.5897,-1.59,-1.5902,-1.6,0,-1.5041,-1.5179,-1.5212,-1.533,-1.54,-1.5416,-1.5483,-1.5543,-1.558,-1.5645,-1.5685,-1.576,-1.5746,-1.5776,-1.5826,-1.5872,-1.593,-1.5865,-1.5961,-1.5964,-1.5944,-1.6044,-1.605,-1.614,-1.6013,-1.6016,-1.6017,0,-1.5167,-1.5234,-1.5358,-1.5433,-1.5464,-1.5524,-1.5601,-1.5663,-1.573,-1.5753,-1.5807,-1.5826,-1.5907,-1.5877,-1.599,-1.5945,-1.5986,-1.6014,-1.6018,-1.6031,-1.5996,-1.6061,-1.617,-1.6184,-1.6038,-1.6036,-1.6035,0,-1.5219,-1.5339,-1.543,-1.5464,-1.5554,-1.5595,-1.5635,-1.57,-1.5747,-1.5814,-1.5845,-1.5921,-1.5964,-1.6022,-1.6061,-1.6035,-1.6172,-1.6144,-1.6194,-1.6194,-1.6225,-1.6223,-1.6344,-1.6247,-1.6247,-1.6246,-1.6246,0,-1.5319,-1.5395,-1.5454,-1.551,-1.5595,-1.5632,-1.5716,-1.5755,-1.5813,-1.5877,-1.5895,-1.5955,-1.6002,-1.6069,-1.6099,-1.6189,-1.6207,-1.6229,-1.6237,-1.6229,-1.6227,-1.6258,-1.6254,-1.625,-1.6249,-1.6249,-1.6248,0,-1.5392,-1.5434,-1.5534,-1.5609,-1.563,-1.569,-1.5755,-1.581,-1.5846,-1.5927,-1.5948,-1.6005,-1.6084,-1.6128,-1.6227,-1.6248,-1.6348,-1.6352,-1.6326,-1.6329,-1.6378,-1.6373,-1.6525,-1.6548,-1.6434,-1.6435,-1.6436,0,-1.5455,-1.5513,-1.5594,-1.5638,-1.5678,-1.5748,-1.5795,-1.5833,-1.5882,-1.5963,-1.6008,-1.6087,-1.6154,-1.6279,-1.633,-1.6406,-1.6413,-1.646,-1.6425,-1.6415,-1.6416,-1.6413,-1.6419,-1.6468,-1.6469,-1.647,-1.647,0,-1.5561,-1.5579,-1.5646,-1.5721,-1.5777,-1.5837,-1.5898,-1.5932,-1.598,-1.6034,-1.6114,-1.6165,-1.6266,-1.6345,-1.6425,-1.6466,-1.6477,-1.648,-1.6497,-1.649,-1.6474,-1.6485,-1.6345,-1.6478,-1.6477,-1.6476,-1.6476,-1.6476,-1.5633,-1.5686,-1.5751,-1.5825,-1.5874,-1.5929,-1.5985,-1.6027,-1.6094,-1.6179,-1.6196,-1.6281,-1.6347,-1.6454,-1.6497,-1.6565,-1.6556,-1.6579,-1.6585,-1.6591,-1.6593,-1.646,-1.6579,-1.6579,-1.6579,-1.6579,-1.6578,0,-1.5742,-1.5784,-1.5852,-1.5935,-1.5993,-1.5996,-1.6062,-1.6111,-1.6186,-1.6245,-1.6309,-1.6401,-1.6477,-1.6533,-1.6611,-1.6654,-1.6661,-1.6674,-1.6672,-1.6682,-1.6596,-1.6575,-1.6667,-1.6667,-1.6667,-1.6667,-1.6667,-1.6667,-1.5807,-1.5896,-1.5921,-1.6035,-1.6077,-1.616,-1.6198,-1.6249,-1.6296,-1.6398,-1.6461,-1.6496,-1.6555,-1.6637,-1.6707,-1.6721,-1.675,-1.6762,-1.6778,-1.6697,-1.6688,-1.6679,-1.666,-1.6768,-1.6768,-1.6858,-1.6859,-1.686]}]]